www.pogodaiklimat.ru

Погода и климат >> Архив погоды >> Россия >> Якутия >> Кюсюр


ПОГОДА в Кюсюре

  • Прогноз погоды в Кюсюре
  • Монитор погоды в Кюсюре

АРХИВ ПОГОДЫ в Кюсюре

Время (UTC), дата Ветер
(напр.,м/с)
 
Видим.   Явления Облачность Т
(С)
Тd
(С)
f
(%)
Тe
(С)
Тes
(С)
Комфортность P
(гПа)
Po
(гПа)
Тmin
(С)
Tmax
(С)
R
(мм)
R24
(мм)
S
(см)
03 17.03 С 6 50 км позёмок 4/0
[Ci fib]
-19.1 -23.2 70 -30 -29 1016.8 1012.4
06 17.03 СВ 7-10
{12}
50 км позёмок 4/0
[Ci fib]
-18.0 -24.9 55 -29 -29 1017.0 1012.6
09 17.03 СВ 7-10
{12}
50 км позёмок 3/0
[Ci fib]
-19.0 -25.8 55 -30 -30 1018.4 1014.0
12 17.03 СВ 7-10
{12}
50 км позёмок 3/0
[Ci fib]
-22.0 -27.7 60 -34 -34 опасность
обморожения
1019.3 1014.9 -17.8
15 17.03 СВ 4
{10}
50 км {метель} ясно -23.5 -28.3 65 -33 -33 опасность
обморожения
1019.9 1015.4
18 17.03 СВ 5 50 км {метель} ясно -26.1 -30.8 65 -38 -38 опасность
обморожения
1019.7 1015.2
21 17.03 СВ 7
{12}
50 км позёмок ясно -27.5 -31.4 69 -41 -41 опасность
обморожения
1019.9 1015.3
00 18.03 СВ 6
{10}
50 км позёмок ясно -27.3 -31.2 69 -40 -40 опасность
обморожения
1020.0 1015.5 -28.1 48
03 18.03 С 7 50 км позёмок ясно -24.5 -29.3 64 -37 -37 опасность
обморожения
1020.0 1015.5
06 18.03 СВ 6 50 км позёмок 3/0
[Ac trans]
-22.7 -28.4 60 -34 -34 опасность
обморожения
1020.1 1015.6
09 18.03 С 6
{10}
50 км позёмок 3/0
[Ac trans]
-24.7 -29.4 65 -37 -37 опасность
обморожения
1020.6 1016.1
12 18.03 СВ 5 50 км {метель} 3/0
[Ac trans]
-26.7 -31.4 64 -38 -38 опасность
обморожения
1021.4 1016.9 -22.3
15 18.03 СВ 5 50 км ясно -29.6 -33.3 70 -42 -42 опасность
обморожения
1021.4 1016.8
18 18.03 СВ 5 50 км ясно -32.2 -35.9 69 -45 -45 опасность
обморожения
1021.4 1016.8
21 18.03 штиль 0 50 км 3/0
[Ci fib]
-34.2 -37.8 70 -34 -34 опасность
обморожения
1021.7 1017.0
00 19.03 штиль 0 50 км ясно -35.6 -39.0 71 -36 -34 опасность
обморожения
1022.0 1017.3 -37.8 46
03 19.03 штиль 0 50 км ясно -31.0 -34.8 69 -31 -28 опасность
обморожения
1022.2 1017.6
06 19.03 штиль 0 50 км ясно -27.6 -33.0 60 -28 -25 1021.9 1017.3
09 19.03 штиль 0 50 км ясно -29.7 -35.1 59 -30 -30 1022.4 1017.8
12 19.03 ЮЗ 1 50 км ясно -30.8 -35.3 65 -35 -35 опасность
обморожения
1023.3 1018.7 -25.8
15 19.03 штиль 0 50 км ясно -34.7 -38.4 69 -35 -35 опасность
обморожения
1023.7 1019.0
18 19.03 штиль 0 50 км ясно -35.9 -39.4 70 -36 -36 опасность
обморожения
1023.8 1019.1
21 19.03 штиль 0 50 км ясно -37.3 -40.8 70 -37 -37 опасность
обморожения
1024.2 1019.5
00 20.03 штиль 0 50 км ясно -35.9 -39.4 70 -36 -35 опасность
обморожения
1024.1 1019.4 -38.7 46
03 20.03 штиль 0 50 км 3/0
[Ci fib]
-31.1 -34.8 70 -31 -28 опасность
обморожения
1023.2 1018.6
06 20.03 штиль 0 50 км 3/0
[Ci fib]
-26.9 -33.3 55 -27 -25 1022.6 1018.1
09 20.03 Ю 2 50 км ясно -26.5 -33.0 54 -33 -33 опасность
обморожения
1022.6 1018.1
12 20.03 Ю 1 50 км ясно -28.9 -33.5 64 -33 -33 опасность
обморожения
1023.4 1018.8 -24.5
15 20.03 Ю 2 50 км 3/0
[Ac trans]
-28.1 -31.9 70 -35 -35 опасность
обморожения
1023.6 1019.0
18 20.03 штиль 0 50 км 3/0
[Ac trans]
-29.3 -33.1 70 -29 -29 1023.3 1018.7
21 20.03 Ю 2 50 км 10/0
[Ac trans Cs]
-24.5 -28.5 69 -31 -31 опасность
обморожения
1022.8 1018.3
00 21.03 Ю 2 10 км слаб. снег 10/0
[Ac trans Cs]
-23.3 -26.5 75 -30 -29 1022.3 1017.8 -31.5 0.3 46
03 21.03 З 1 50 км {снег} 8/0
[Ac trans Ci fib]
-20.4 -24.5 70 -23 -21 1021.3 1016.9
06 21.03 ЮЗ 5 50 км {снег} 8/0
[Ac trans Ci fib]
-17.0 -22.0 65 -26 -26 1019.6 1015.3
09 21.03 Ю 6
{10}
50 км позёмок 8/0
[Ac trans Ci fib]
-16.0 -21.1 65 -26 -26 1018.6 1014.3
12 21.03 Ю 5 10 км слаб. снег {метель} 10/0
[Ac trans Cs]
-15.9 -20.1 70 -25 -25 1018.3 1014.0 -15.0 0.3
15 21.03 Ю 4 10 км слаб. снег {метель} 10/0
[Ac trans Cs]
-16.0 -20.2 70 -24 -24 1016.8 1012.5
18 21.03 Ю 5 10 км слаб. снег 10/0
[Ac trans Cs]
-15.3 -19.5 70 -24 -24 1015.1 1010.8
21 21.03 Ю 4 50 км {снег} 8/0
[Ac trans Ci fib]
-15.6 -21.6 60 -24 -24 1012.4 1008.1
00 22.03 Ю 6 50 км позёмок {снег} 8/0
[Ac trans Cs]
-13.2 -21.4 50 -22 -22 1009.4 1005.1 -16.3 0.4 46
03 22.03 Ю 6-10
{13}
50 км позёмок 9/0
[Ac und]
-11.1 -20.7 45 -20 -19 1007.0 1002.8
06 22.03 Ю 7-12
{14}
50 км позёмок 10/0
[Ac und]
-9.1 -19.4 43 -18 -18 1004.0 999.8
09 22.03 Ю 6-10
{14}
50 км позёмок 10/0
[Ac und]
-8.4 -18.9 42 -16 -16 1001.6 997.5
12 22.03 Ю 4
{13}
50 км {метель} 10/0
[Ac und]
-9.4 -12.4 79 -16 -16 1001.5 997.3 -8.3
15 22.03 Ю 4 10 км слаб. снег 10/0
[As op]
-9.3 -14.4 66 -16 -16 1000.9 996.7
18 22.03 Ю 2
{11}
50 км {снег} 10/0
[Ac und]
-10.8 -14.4 75 -15 -15 1000.9 996.7
21 22.03 Ю 1 10 км слаб. снег 10/0
[As op]
-13.0 -15.0 85 -15 -15 1001.2 996.9
00 23.03 СВ 1 50 км {снег} 3/0
[Ac trans]
-12.7 -14.7 85 -15 -14 1001.8 997.5 -13.0 1 46
03 23.03 С 1 50 км 4/0
[Ac trans Ci fib]
-10.4 -14.8 70 -13 -10 1001.8 997.6
06 23.03 СВ 2 50 км 4/0
[Ac trans Ci fib]
-9.8 -16.3 59 -14 -13 1002.5 998.3
09 23.03 СВ 2 50 км 3/0
[Ci fib]
-13.0 -18.2 65 -18 -18 1004.5 1000.2
12 23.03 СВ 5 50 км 3/0
[Ci fib]
-18.2 -21.5 75 -28 -28 1006.2 1001.9 -9.5
15 23.03 СВ 7
{10}
50 км позёмок 3/0
[Ac trans]
-21.6 -24.8 75 -34 -34 опасность
обморожения
1007.8 1003.5
18 23.03 СВ 7
{11}
50 км позёмок 3/0
[Ac trans]
-23.8 -27.7 70 -37 -37 опасность
обморожения
1008.9 1004.5
21 23.03 СВ 7
{11}
50 км позёмок 3/0
[Ac trans]
-25.1 -29.0 70 -38 -38 опасность
обморожения
1010.1 1005.6
00 24.03 СВ 8-10
{10}
50 км позёмок ясно -23.9 -27.9 69 -37 -37 опасность
обморожения
1011.0 1006.5 -25.1 46

 

Местоположение метеостанции Кюсюр (Якутия, Россия): широта 70.68 долгота 127.40 высота над уровнем моря 33 м.

В архиве по умолчанию представлена погода в Кюсюре за последнюю неделю. Архивные данные за месяц целиком и за предыдущие месяцы, начиная с января 2011 года, Вы можете получить, выбрав интересующий диапазон дат из раскрывающегося списка и нажав кнопку "Ввод!".


*Определитесь, кто Вы:
робот инопланетянин человек

Внимание! Время в таблицах - всемирное. Для получения местного времени необходимо прибавить поправку, которая равна 9 ч.

Смотрите также архив погоды в соседних городах и на ближайших метеорологических станциях:

Погода в Тикси (Якутия, Россия) (114 км)
Погода на Мысе Быков (Якутия, Россия) (159 км)
Погода на Столб Острове (Якутия, Россия) (195 км)
Погода в Тюмяти (Якутия, Россия) (196 км)
Погода в Джарджане (Якутия, Россия) (253 км)
Погода в Усть-Куйге (Якутия, Россия) (316 км)
Погода в Юбилейной (Якутия, Россия) (323 км)
Погода в Батагай-Алыте (Якутия, Россия) (343 км)
Погода на Усть-Оленеке (Якутия, Россия) (368 км)
Погода в Сухане (Якутия, Россия) (419 км)

Пояснения к столбцам:

Ветер - указаны скорость ветра в м/с - средняя за 10 мин, порывы в срок и между сроками (в фигурных скобках) и направление, откуда дует ветер: С - северный, СВ - северо-восточный, В - восточный, ЮВ - юго-восточный, Ю - южный, ЮЗ - юго-западный, З - западный, СЗ - северо-западный.
Видимость - горизонтальная дальность видимости в метрах или километрах. При видимости от 1 до 10 км при отсутствии осадков обычно наблюдается дымка, при ухудшении видимости до 1 км и менее - туман. В сухую погоду видимость может ухудшаться дымом, пылью или мглою.
Явления - указаны атмосферные явления, наблюдавшиеся в срок или в последний час перед сроком; фигурными скобками обозначены явления, наблюдавшиеся между сроками (за 1-3 часа до срока); квадратными скобками обозначены град или гололедные отложения с указанием их диаметра в мм.
Облачность - указаны через наклонную черту общая и нижняя облачность в баллах и высота нижней границы облаков в метрах; квадратными скобками обозначены формы облаков: Ci - перистые, Cs - перисто-слоистые, Cc - перисто-кучевые, Ac - высококучевые, As - высокослоистые, Sc - слоисто-кучевые, Ns - слоисто-дождевые, Cu - кучевые, Cb - кучево-дождевые. Подробнее классификацию облаков см. в Атласе облаков (PDF).
T - Температура воздуха - температура, измеренная на высоте 2 м над землей.
Td - Температура точки росы - температура, при понижении до которой содержащийся в воздухе водяной пар достигнет насыщения.
f - Относительная влажность воздуха - влажноcть воздуха, измеренная на высоте 2 м над землей.
Te - Эффективная температура - температура, которую ощущает одетый по сезону человек в тени. Характеристика душности погоды. При расчете учитывается влияние влажности воздуха и скорости ветра на теплоощущения человека.
Tes - Эффективная температура на солнце - температура, которую ощущает человек, с поправкой на солнечный нагрев. Характеристика знойности погоды. Зависит от высоты солнца над горизонтом, облачности и скорости ветра. Ночью, в пасмурную погоду, а также при ветре 12 м/с и более поправка равна нулю.
P - Атмосферное давление - приведенное к уровню моря атмосферное давление.
Po - Атмосферное давление - измеренное на уровне метеостанции атмосферное давление.
Tmin - Минимальная температура - минимум температуры воздуха на высоте 2 м над землей.
Tmax - Максимальная температура - максимум температуры воздуха на высоте 2 м над землей.
R - Количество осадков - Количество выпавших осадков за период времени, мм. При наведении курсора мыши на число - период времени, за который выпало указанное количество осадков.
R24 - Количество осадков - Количество выпавших осадков за 24 часа, мм.
S - Снежный покров - Высота снежного покрова, см. При наведении курсора мыши на число - состояние снежного покрова и степень покрытия местности в баллах.